Погода в Североонежске

Россия / Архангельская область     62°35′27″N   39°50′27″E
темп.,
°C
ветер,
м/с
пор.,
м/с
влажн.,
%
обл.,
%
осадки,
мм/ч
давл.,
гПа
погр.,
м
17 мая, пн
пн1700:00+9сз1196100 0.0 101110
03:00+9сз2296100 0.0 101330
06:00+11зсз1393100 0.0 1014134
09:00+16з11747 0.0 1015557
12:00+20ююз12535 0.0 10161345
15:00+21ю1247100 0.1 10161531
18:00+18вюв1164100 0.0 101616
21:00+15юв2276100 0.0 101740
18 мая, вт
вт1800:00+13юв2881100 0.0 1017159
03:00+12вюв31183100 0.0 1017259
06:00+14юв41375100 0.0 1017416
09:00+19юв51160100 0.1 1016700
12:00+24ююв6105288 0.8 10141118
15:00+26ююв59440 0.8 10131644
18:00+26ююв511485 0.0 10121505
21:00+21ююв4146455 0.0 1013600
19 мая, ср
ср1900:00+17юв313865 0.1 1013426
03:00+16юв3129259 0.1 1013367
06:00+18юв3118553 0.0 1012406
09:00+24ю585649 0.0 1012824
12:00+28ю593518 0.0 10121545
15:00+30ю510285 0.0 10113875
18:00+28ю410363 0.0 10101807
21:00+23ююв515480 0.0 1011675
20 мая, чт
чт2000:00+20ююв415645 0.0 1011693
03:00+17ююв310780 0.0 1011335
06:00+18ююв4117618 0.0 1011430
09:00+23ю475888 0.0 1010734
12:00+27ю484396 0.0 10091478
15:00+29ю58283 0.0 10093012
18:00+28ю3734100 0.0 10072549
21:00+22ююв41249100 0.0 1007478
21 мая, пт
пт2100:00+18ююв286499 0.0 1007196
03:00+16юв3877100 0.0 1007182
06:00+17юв36720 0.0 1006282
09:00+22ююв47500 0.0 10051356
12:00+22ююв5950100 0.0 10032295
15:00+24ююв5737100 0.0 10022680
18:00+19ю3859100 0.0 1002592
21:00+15ю247997 1.0 100168